This is the latest recevied weather packets stored in our database for station/object N8DMH-13. If no packets are shown the sender has not sent any weather packets the latest 10 day(s).
| Time | Temp. | Humidity | Pressure | Rain* | Wind** | Luminosity | Snow |
|---|---|---|---|---|---|---|---|
| 1777948128 | 12.22° C | 73% | 996.2 hPa | 0.25 mm | - | - | - |
| 1777947828 | 12.78° C | 74% | 996.1 hPa | 0.25 mm | - | - | - |
| 1777947198 | 13.33° C | 81% | 995.6 hPa | 0.51 mm | - | - | - |
| 1777946868 | 12.78° C | 83% | 995.5 hPa | 0.51 mm | - | - | - |
| 1777946538 | 12.78° C | 83% | 995.4 hPa | 0.51 mm | - | - | - |
| 1777946237 | 13.33° C | 83% | 995.4 hPa | 0.51 mm | - | - | - |
| 1777945907 | 13.33° C | 82% | 995.3 hPa | 0.51 mm | - | - | - |
| 1777945577 | 13.33° C | 81% | 995.3 hPa | 0.51 mm | - | - | - |
| 1777945277 | 13.33° C | 80% | 995.2 hPa | 0.25 mm | - | - | - |
| 1777944977 | 13.33° C | 80% | 995 hPa | 0.25 mm | - | - | - |
| 1777944648 | 13.33° C | 79% | 995.2 hPa | 0.25 mm | - | - | - |
| 1777944317 | 13.89° C | 78% | 994.9 hPa | 0.25 mm | - | - | - |
| 1777944017 | 13.89° C | 77% | 994.9 hPa | 0.51 mm | - | - | - |
| 1777943717 | 14.44° C | 76% | 995.1 hPa | 0.25 mm | - | - | - |
| 1777943386 | 14.44° C | 75% | 995.1 hPa | 0.25 mm | - | - | - |
| 1777943090 | 14.44° C | 75% | 994.6 hPa | 0.25 mm | - | - | - |
| 1777942756 | 14.44° C | 76% | 994.7 hPa | 0.25 mm | - | - | - |
| 1777942456 | 14.44° C | 78% | 994.9 hPa | 0.25 mm | - | - | - |
| 1777942126 | 15° C | 75% | 994.8 hPa | 0.25 mm | - | - | - |
| 1777941826 | 15.56° C | 74% | 994.7 hPa | 0.25 mm | - | - | - |
| 1777941526 | 15.56° C | 70% | 994.9 hPa | 0.25 mm | - | - | - |
| 1777941196 | 16.11° C | 69% | 994.7 hPa | 0.25 mm | - | - | - |
| 1777940867 | 16.11° C | 69% | 994.8 hPa | 0.25 mm | - | - | - |
| 1777940566 | 16.11° C | 67% | 994.6 hPa | 0.25 mm | - | - | - |
| 1777940235 | 16.67° C | 66% | 994.2 hPa | 0.51 mm | - | - | - |
* Rain latest hour (hover to see other rain measurements)
** Current wind speed in m/s (hover to see current wind gust speed)